Probability
0 0 0 0 0 0 0 0 0 0 0 0 0 0 0 0 0 0 0 0 0 0 0 0 0 0 0 0 0 0 0 0 0 0 0 0 0 0 0 0 0 0 0
0 0 0 0 0 0 0 0 0 0 0 0 0 0 0 0 0 0 0 0 0 0 0 0 0 0 0 0 0 0 0 0 0 0 0 0 0 0 0 0 0 0 0
0 0 0 0 0 0 0 0 0 0 0 0 0 0 0 0 0 0 0 0 0 0 0 0 0 0 0 0 0 0 0 0 0 0 0 0 0 0 0 0 0 0 0
0 0 0 0 0 0 0 0 0 0 0 0 0 0 0 0 0 0 0 0 0 0 0 0 0 0 0 0 0 0 0 0 0 0 0 0 0 0 0 0 0 0 0
1 0 0 0 0 0 0 0 0 0 0 0 0 0 0 0 0 0 0 0 0 0 0 0 0 0 0 0 0 0 0 0 0 0 0 0 0 0 0 0 0 0 0
2 1 1 0 1 1 0 0 0 0 0 0 1 1 0 0 0 0 0 0 0 0 0 0 0 0 0 0 0 0 0 0 0 0 0 0 0 0 0 0 0 0 0
3 3 2 2 2 2 1 1 1 1 1 2 3 2 1 0 0 0 0 0 0 0 0 0 0 0 0 0 0 0 0 0 0 0 0 0 0 0 0 0 0 0 0
4 4 3 3 3 3 3 5 5 5 5 5 5 4 1 0 0 0 0 0 0 0 0 0 0 0 0 0 0 0 0 0 0 0 1 0 0 0 0 0 0 0 0
4 3 3 4 4 3 5 7 9 9 9 9 8 6 3 1 1 1 1 0 0 0 0 0 0 0 0 1 0 0 0 0 0 0 0 0 0 0 0 0 0 0 0
4 4 5 6 6 6 6 9 11 12 13 14 12 9 6 4 3 2 1 1 0 0 0 0 0 0 0 1 1 0 0 0 0 0 0 1 1 1 0 0 0 0 0
6 6 7 9 9 9 10 12 14 13 15 16 14 11 8 6 4 2 2 2 1 0 0 0 0 0 1 1 2 1 1 0 0 0 0 1 2 2 1 0 0 0 0
8 8 8 8 9 10 13 15 15 13 15 16 16 13 10 7 4 2 2 3 2 0 0 1 1 1 2 3 3 3 3 2 0 0 0 1 2 2 1 0 0 0 0
10 9 7 5 6 8 11 13 13 11 12 13 13 13 11 7 5 4 4 3 2 1 1 2 3 3 4 5 5 4 4 2 0 0 0 1 1 1 1 0 0 0 0
8 7 6 4 5 7 9 10 11 10 10 10 10 12 12 9 8 8 7 6 4 2 2 4 5 5 6 7 5 3 3 2 0 0 0 0 0 0 0 0 0 0 0
7 6 5 5 6 7 9 10 11 11 10 10 11 13 13 12 12 11 9 9 7 5 5 6 5 6 7 7 5 4 3 2 0 0 0 0 0 0 0 0 0 0 0
9 7 6 6 7 8 10 11 11 11 9 9 10 12 13 14 14 13 13 13 10 7 7 8 6 6 6 5 4 4 5 4 2 1 0 0 0 0 0 0 0 0 0
11 10 9 8 8 8 10 12 11 8 6 5 6 9 12 14 14 15 17 16 12 9 8 7 6 6 8 7 6 5 5 5 4 2 0 0 0 0 0 0 0 0 0
12 12 12 11 11 10 11 12 11 8 5 3 4 8 10 11 13 16 17 16 12 10 9 6 4 6 8 10 9 7 5 6 5 2 0 0 0 0 0 0 0 0 0
14 14 15 15 15 13 12 11 10 9 7 6 6 9 10 11 12 14 14 13 11 10 9 6 3 5 9 11 11 8 6 7 6 2 0 0 0 0 0 0 0 0 0
17 18 19 18 17 14 11 10 10 10 9 8 8 9 9 9 11 11 10 11 11 9 7 6 4 6 9 11 11 9 9 8 7 3 2 1 0 0 0 0 0 0 0
20 21 20 19 17 13 9 10 11 10 11 10 9 8 7 7 7 6 5 8 9 8 6 6 6 6 8 11 10 10 9 7 5 4 4 2 1 0 0 0 0 0 0
24 24 21 19 17 12 7 7 8 10 12 11 9 8 6 4 4 3 3 4 5 5 5 5 5 4 6 9 10 10 9 8 6 5 4 3 2 1 1 0 0 0 0
29 27 24 21 18 12 5 2 4 7 10 9 8 8 6 4 4 4 2 2 3 2 2 3 3 2 4 8 10 11 11 11 8 6 4 3 3 3 2 1 0 0 0
32 30 26 23 20 14 6 1 2 6 8 7 6 6 5 3 3 4 4 4 5 3 1 2 3 2 3 6 8 9 11 9 7 6 5 4 3 3 3 2 1 0 0
29 27 25 24 21 16 7 1 2 6 8 6 4 3 3 2 2 2 4 7 8 5 2 1 1 1 1 2 3 6 8 6 4 5 5 4 3 3 3 2 1 0 0
25 24 25 24 21 15 8 2 1 5 7 6 4 2 1 1 1 1 4 8 9 7 4 1 0 0 0 0 0 3 6 6 4 5 5 4 3 3 2 1 1 1 1
Wind_Speed
3 3 2 2 3 3 4 3 3 3 4 4 4 4 3 2 2 3 6 10 9 8 8 9 9 9 8 8 8 9 9 9 8 8 8 7 7 7 7 6 6 6 5
3 3 3 3 2 3 2 3 4 4 4 3 4 4 4 4 3 4 4 8 10 9 9 9 10 10 9 9 10 10 10 10 9 9 8 8 7 7 8 7 7 6 6
3 3 2 3 3 3 4 3 3 3 3 4 4 4 4 4 4 4 4 4 7 11 10 10 9 9 10 10 10 10 10 10 10 9 9 8 8 8 8 8 7 7 7
4 3 3 3 3 3 4 4 4 3 3 3 3 3 3 3 4 5 5 5 4 6 10 11 10 9 10 10 11 11 10 10 10 9 10 9 9 8 8 8 8 8 8
5 4 3 2 4 4 4 4 4 3 3 3 3 4 3 4 4 5 5 6 5 5 5 10 12 10 10 10 11 11 11 11 10 10 10 10 10 9 9 9 9 9 9
6 5 4 4 5 4 4 4 3 3 3 3 4 2 3 3 4 4 6 6 5 6 6 6 8 10 12 11 11 11 11 11 11 11 11 11 11 10 9 9 9 9 9
6 6 5 4 5 4 5 5 5 5 4 3 3 3 4 5 5 5 5 5 6 6 5 6 6 5 7 13 12 11 11 12 12 12 12 12 12 10 10 9 10 10 10
6 6 6 5 6 4 5 6 6 5 4 4 4 3 3 4 5 6 5 6 6 5 6 7 7 6 6 5 8 13 12 12 12 12 12 12 11 11 10 10 10 10 10
7 6 6 6 5 6 5 6 6 7 5 4 4 3 3 2 2 3 5 5 5 5 6 6 7 7 7 6 5 11 12 11 12 12 12 12 11 11 11 11 10 10 10
7 7 7 6 6 6 5 7 7 5 6 5 4 5 5 4 3 2 4 5 6 6 6 6 6 7 7 6 5 5 9 10 11 12 11 11 12 12 11 11 11 10 10
6 7 6 6 6 6 6 7 5 6 6 6 5 4 5 5 7 5 4 3 4 5 5 6 5 5 6 7 6 7 9 9 9 10 10 10 10 11 11 11 11 11 10
4 6 7 6 6 6 6 6 6 7 7 6 6 5 5 5 5 5 5 5 4 4 4 4 5 5 5 6 7 5 8 8 9 9 9 9 9 10 11 11 11 10 10
4 4 5 5 5 6 6 6 7 7 7 7 7 6 6 6 5 5 5 5 5 4 4 5 5 5 5 5 4 6 7 8 9 9 9 9 9 9 9 10 10 9 8
3 3 5 5 6 7 7 6 6 7 6 7 8 7 6 6 6 5 5 5 5 5 5 5 3 4 4 4 3 5 6 8 8 8 8 8 8 8 8 8 8 8 7
4 4 5 5 6 6 7 7 6 7 6 7 7 7 7 5 5 5 5 5 6 6 5 4 4 4 3 3 3 5 5 6 8 8 8 8 8 8 7 7 7 7 6
4 5 5 5 6 6 6 6 6 6 6 6 5 6 6 5 4 5 5 5 5 6 5 3 3 3 4 4 4 5 4 5 7 8 8 8 8 8 8 8 7 7 7
4 5 5 5 5 5 5 4 5 6 7 6 6 6 6 6 5 5 5 5 6 5 6 5 3 3 4 5 3 4 4 4 4 8 9 8 8 7 7 7 7 7 8
4 4 4 5 5 4 4 5 6 6 6 7 7 6 6 5 6 5 5 6 5 5 6 6 4 4 5 5 5 5 4 4 3 7 8 8 7 7 7 7 7 7 7
4 4 4 4 4 3 4 5 5 5 6 6 6 6 6 6 6 5 5 5 5 4 4 5 4 3 3 4 4 4 4 3 3 5 7 7 7 7 7 7 7 7 7
4 4 3 3 3 2 3 4 4 4 5 5 5 5 5 5 6 5 5 5 4 4 4 5 4 4 3 3 3 4 3 3 3 3 3 4 6 7 8 8 8 8 8
3 3 3 3 3 2 2 3 4 4 4 4 4 4 4 2 3 3 4 4 4 5 5 5 4 4 4 4 4 4 4 3 3 3 3 4 5 5 6 8 9 9 8
3 2 3 3 2 1 2 3 4 4 3 4 4 3 3 2 2 3 4 4 5 6 6 5 5 5 5 4 3 4 4 4 3 4 4 4 4 4 4 4 7 9 9
3 2 2 2 1 1 1 2 3 4 3 3 3 2 3 1 2 3 3 4 4 3 5 5 5 5 4 4 4 5 5 5 4 3 4 4 4 4 4 4 9 9 9
2 2 2 1 1 1 1 1 4 4 2 2 2 2 2 2 2 3 3 3 2 1 2 3 3 3 3 2 4 4 4 3 2 3 4 3 3 3 3 4 8 9 9
2 2 2 1 1 1 1 1 5 3 2 2 1 1 2 2 2 3 3 3 3 1 1 1 1 1 0 1 2 3 4 4 4 4 4 4 4 4 3 4 6 10 10
3 3 2 2 1 0 2 1 4 3 2 2 1 1 1 1 1 2 4 3 3 2 1 1 1 2 3 4 4 5 4 4 3 3 5 4 4 4 4 3 4 6 7
Wind_Direction
165 151 154 166 174 155 164 176 164 157 165 175 186 173 177 170 168 176 141 162 181 190 191 191 195 196 197 196 192 192 195 195 195 195 196 196 195 194 193 194 195 195 196
164 175 174 178 184 184 171 176 171 176 190 178 189 184 193 188 180 194 177 167 184 195 200 200 203 203 204 205 204 202 205 206 206 205 205 205 206 206 206 207 208 206 205
179 199 193 191 186 178 172 195 188 189 194 189 191 192 201 210 192 200 205 191 180 188 198 205 210 209 209 212 211 210 210 211 211 206 207 209 209 210 213 214 215 213 212
207 216 217 205 182 198 192 185 207 199 195 205 197 207 200 204 210 208 211 209 207 191 188 199 209 211 214 219 219 214 212 211 208 207 208 209 210 212 214 217 219 217 216
213 219 223 205 207 205 210 217 191 210 202 213 215 203 215 210 211 219 219 217 211 216 201 181 198 209 216 221 224 221 216 212 209 210 212 213 215 216 217 220 221 220 220
220 226 221 210 222 212 210 225 213 216 231 228 243 220 229 220 217 220 226 220 213 216 220 208 196 200 210 220 223 225 222 218 213 215 217 219 220 219 217 221 224 224 223
224 222 236 212 226 223 218 215 215 209 215 217 231 232 229 223 224 220 226 227 216 217 219 218 222 216 198 206 215 220 222 221 217 217 218 219 222 221 220 221 224 226 224
229 222 227 230 220 222 221 222 218 230 221 207 228 245 241 215 212 219 214 216 223 219 218 216 220 220 234 208 192 206 217 221 223 221 219 218 220 220 221 223 224 225 227
227 234 231 237 232 227 220 224 222 227 231 224 226 240 261 260 241 200 215 219 219 224 227 224 220 219 223 228 206 193 205 213 219 222 220 218 217 217 219 221 223 225 228
236 231 232 233 236 238 229 230 222 228 234 237 232 234 252 278 272 249 213 207 209 219 230 231 225 215 218 223 212 205 194 205 216 223 224 220 217 216 216 218 222 223 224
236 238 234 232 232 238 235 239 237 233 234 241 245 244 241 241 245 254 258 238 224 221 223 230 236 229 222 223 218 204 183 195 208 218 223 222 219 216 218 220 223 224 224
226 232 234 232 235 240 239 240 243 237 238 243 248 249 245 244 243 246 256 253 249 237 227 234 232 229 228 227 223 180 177 194 206 212 215 217 218 216 219 221 221 221 221
230 229 239 237 242 242 245 245 242 248 241 239 243 246 248 250 256 252 252 260 263 255 233 231 226 228 230 223 213 175 190 198 206 209 212 214 215 217 216 210 208 210 212
250 253 245 242 244 246 246 241 243 239 236 238 243 246 250 249 249 247 248 254 259 253 236 232 223 222 230 229 200 189 209 191 201 208 212 212 210 208 203 199 200 203 206
243 240 244 245 248 250 253 247 243 243 238 237 241 237 243 247 245 246 245 240 249 260 255 231 227 215 219 228 190 218 225 189 194 203 205 201 195 191 190 191 191 195 198
249 251 251 251 254 255 253 249 241 236 236 236 239 244 246 247 249 247 246 244 242 251 261 258 249 237 230 230 197 221 226 179 190 190 188 188 188 189 190 189 188 190 187
239 241 248 254 259 261 258 254 254 245 241 238 238 237 243 249 246 251 249 244 242 241 250 258 251 236 228 234 219 226 223 220 195 177 177 178 180 183 184 186 188 185 180
240 241 247 252 260 265 262 257 258 252 249 245 242 244 247 245 240 247 252 253 250 248 248 254 253 248 241 228 220 224 227 219 210 162 169 174 176 179 181 180 178 175 174
243 246 245 251 261 270 263 258 256 254 252 252 250 248 251 251 249 250 250 252 252 249 248 251 255 253 245 222 211 217 222 220 215 170 165 172 177 178 179 178 174 168 168
235 238 240 250 256 261 267 265 259 255 254 254 253 258 261 257 257 257 251 248 251 254 249 248 246 241 234 215 207 211 215 207 215 203 180 175 173 178 180 176 173 169 168
227 220 223 233 248 251 282 288 270 255 257 261 255 256 259 278 305 282 276 268 259 253 250 248 245 237 229 210 213 213 213 205 219 209 196 195 187 187 181 181 180 175 172
216 214 218 225 243 291 17 334 298 273 264 262 260 261 258 241 230 227 249 257 262 259 261 256 253 249 241 232 220 214 211 208 220 198 201 210 193 188 182 175 162 168 173
198 201 216 222 229 359 6 304 292 280 269 271 275 286 284 289 261 250 223 219 234 243 252 260 259 258 251 235 224 223 218 225 229 186 195 207 190 196 185 157 154 164 172
201 200 203 204 215 83 46 307 291 255 264 266 266 262 273 294 324 317 283 265 265 257 258 255 267 268 265 244 231 232 225 224 214 181 194 206 191 195 184 166 161 171 175
196 201 200 214 229 127 71 306 290 251 233 236 254 281 285 282 34 332 279 269 270 262 109 84 343 288 195 202 225 220 207 210 217 197 197 209 191 186 183 185 172 179 184
200 207 190 212 230 195 105 341 298 266 249 242 218 211 66 357 23 307 268 261 260 271 279 213 192 192 197 184 200 225 225 226 225 208 189 205 191 183 185 190 185 182 190